Showing default

NAHLA, 66764

Orbit data source: Space-Track

NAHLA, 66764 is a payload satellite owned by Aerospacelab (BE) in SSO that was launched on Fri, 28 Nov 2025 UTC via an FALCON 9 launch vehicle from the Air Force Western Test Range (AFWTR). Payload-class satellites include a variety of spacecraft equipped with specific instruments for various scientific and technological missions. These include communications satellites like Starlink; space stations such as the ISS; scientific satellites like the Hubble; Earth observation satellites from companies like Planet Labs, Umbra, and HawkEye 360; GPS; miniature CubeSats for education and research; and military/defense satellites.

Loading next visibility...
Identifier
66764, 2025-276DC
Orbit
SSO
Country
Flag of BEBE / BEL
Related business
Manufacturer
Aerospacelab
Mission
Operational N Imaging
Bus & Motor
VSP-150, 0
Mass
~200 kg wet, ~200 kg dry
Launch date (UTC)
2025-11-28 (2 months ago)
Launch vehicle
FALCON 9
Launch site
Air Force Western Test Range (AFWTR)
Object type
Payload
Rocket body
Debris
Shape & HBR
Box + 2 Pan, 1.0 m
Radar Cross Section
0.969 m²

Expand to show TLE details & history
Last TLE update: 18 hours ago

TLE from 18 hours ago
0 NAHLA
1 66764U 25276DC  26034.47552982  .00003741  00000-0  18694-3 0  9994
2 66764  97.4342 110.3331 0004326  85.3026 274.8702 15.18064652 10123
Epoch: 2026-02-03T11:24Z
TLE epoch observation values (Epoch: 2026-02-03T11:24:45.776Z)
Latitude
-0.00002°
Longitude
165.48644°
Altitude
514.525 km
Speed
7.607 km/s
True Right ascension
07h 21m 19s
True Declination
0° 00' 00"
Sunlit
Object was in full shadow at epoch
Visualization orbit readout
Latitude
Unknown
Longitude
Unknown
Altitude
Unknown
Speed
Unknown
Apparent Right ascension
Unknown
Apparent Declination
Unknown
Sunlit
N/A
Visualization observer readout
Local Sidereal Time
07:46:09
Azimuth
Unknown
Elevation
Unknown
Doppler factor
Unknown
Orbital elements
Apogee altitude
511.639 km
Perigee altitude
505.681 km
Semi-major axis
6,886.797 km
Eccentricity
0.00043
Inclination
97.4342°
RAAN
110.3331°
Arg. of periapsis
85.3026°
True anomaly
274.8208°
Mean anomaly
274.8702°
Eccentric anomaly
274.8455°
Mean motion
3.79767 °/min
Orbital period
94.79 mins
BSTAR
0.00018694
Loading maneuver chart data...
Computing Atmospheric mass density...
Loading historical data...
Loading historical data...
Loading historical data...
Loading historical data...
Loading historical data...
Loading historical data...
Loading historical data...

Documentation

Showing up to 5 results
|